Newburgh, NY

11:06 AM EDT on April 22, 2018 (GMT -0400)
Stewart International

Weather History for KSWF - January, 2014

Change the Weather History Date:

Friday, January 3, 2014

  Actual Average Record
Temperature  
Mean Temperature 5 °F -  
Max Temperature 12 °F 35 °F 73 °F (1999)
Min Temperature -4 °F 21 °F -4 °F (2014)
Degree Days  
Heating Degree Days 60    
Moisture  
Dew Point -3 °F    
Average Humidity 72    
Maximum Humidity 92    
Minimum Humidity 52    
Precipitation  
Precipitation 0.00 in - - ()
Sea Level Pressure  
Sea Level Pressure 30.24 in    
Wind  
Wind Speed 9 mph (North)    
Max Wind Speed 12 mph    
Max Gust Speed 23 mph    
Visibility 10 miles    
Events Snow    
Averages and records for this station are not official NWS values.
T = Trace of Precipitation, MM = Missing Value Source: NWS Daily Summary

Daily Weather History Graph

Daily Weather History Graph

Search for Another Location

Airport or City:

Astronomy

Jan. 03, 2014 Rise Set
Actual Time 7:23 AM EST 4:39 PM EST
Civil Twilight 6:51 AM EST 5:10 PM EST
Nautical Twilight 6:17 AM EST 5:45 PM EST
Astronomical Twilight 5:43 AM EST 6:18 PM EST
Moon 8:45 AM EST (1/3) 7:47 PM EST (1/3)
Length of Visible Light 10h 18m
Length of Day
9h 16m
Waxing Crescent, 8% of the Moon is Illuminated
Jan 3
Waxing Crescent
Jan 7
First Quarter
Jan 15
Full
Jan 24
Last Quarter
Jan 30
New

Hourly Weather History & Observations

Time (EST) Temp. Windchill Dew Point Humidity Pressure Visibility Wind Dir Wind Speed Gust Speed Precip Events Conditions
12:45 AM 5.0 °F -10.8 °F 3.2 °F 92% 30.75 in 1.0 mi NNE 11.5 mph 23.0 mph N/A Snow Light Snow
3:45 AM 5.0 °F -9.1 °F 1.4 °F 85% 29.79 in 1.0 mi NNE 9.2 mph 23.0 mph N/A   Overcast
5:45 AM - - - N/A% 30.85 in 1.2 mi NNE 11.5 mph - N/A   Unknown
6:45 AM 3.2 °F -10.3 °F -0.4 °F 85% 29.89 in 1.8 mi NE 8.1 mph - N/A Snow Light Snow
7:45 AM 5.0 °F -10.8 °F -0.4 °F 78% 29.94 in 2.0 mi NNE 11.5 mph 17.3 mph N/A Snow Light Snow
8:45 AM 3.2 °F -10.3 °F -0.4 °F 85% 29.99 in 3.0 mi NNE 8.1 mph - N/A Snow Light Snow
9:45 AM 3.2 °F -10.3 °F -2.2 °F 78% 30.03 in 10.0 mi NE 8.1 mph - N/A   Scattered Clouds
10:45 AM 5.0 °F -8.1 °F -0.4 °F 78% 30.06 in 10.0 mi NNE 8.1 mph - N/A   Partly Cloudy
11:45 AM 6.8 °F -8.6 °F -0.4 °F 72% 30.07 in 20.0 mi North 11.5 mph - N/A   Partly Cloudy
12:45 PM 8.6 °F -4.7 °F 1.4 °F 73% 30.10 in 20.0 mi North 9.2 mph - N/A   Clear
1:45 PM 12.2 °F -0.2 °F 3.2 °F 67% 30.15 in 20.0 mi NNW 9.2 mph - N/A   Clear
2:45 PM 12.2 °F -0.2 °F 1.4 °F 62% 30.18 in 20.0 mi North 9.2 mph - N/A   Clear
4:45 PM 10.4 °F -4.1 °F -4.0 °F 52% 30.26 in 10.0 mi NW 11.5 mph - N/A   Clear
5:45 PM 6.8 °F -6.9 °F -5.8 °F 56% 30.31 in 10.0 mi NW 9.2 mph - N/A   Clear
6:45 PM 5.0 °F -9.1 °F -7.6 °F 56% 30.37 in 10.0 mi WNW 9.2 mph - N/A   Clear
7:45 PM 3.2 °F -11.3 °F -5.8 °F 66% 30.40 in 10.0 mi WNW 9.2 mph - N/A   Clear
8:45 PM 1.4 °F -13.5 °F -7.6 °F 66% 30.42 in 10.0 mi West 9.2 mph - N/A   Clear
9:45 PM -2.2 °F -15.6 °F -9.4 °F 71% 30.42 in 10.0 mi West 6.9 mph - N/A   Clear
10:55 PM -2.2 °F - -9.4 °F 71% 30.43 in 10.0 mi Calm Calm - N/A   Clear
11:45 PM -4.0 °F - -9.4 °F 78% 30.43 in 10.0 mi Calm Calm - N/A   Clear